Wind_Speed
48 47 45 43 42 43 44 42 41 37 37 36 36 36 34 33 33 32 31 31 31 31 31 31 31 31 32 32 33 33 33 34 34 35 35 36 36 37 38 39 40 41 42 43
48 47 46 45 45 44 43 41 39 38 37 35 36 36 35 34 33 32 31 31 31 31 31 31 31 31 32 32 33 33 34 34 34 35 36 36 37 38 39 40 41 42 44 45
49 47 47 49 45 42 41 39 39 38 34 34 35 35 35 35 34 32 31 31 31 30 31 31 31 31 31 32 33 33 33 34 35 35 36 37 38 39 40 41 42 44 45 47
47 48 51 47 43 41 40 38 38 37 35 35 35 35 35 34 33 32 31 31 30 30 30 30 30 31 31 32 33 33 34 34 35 36 37 38 39 40 41 42 43 45 46 47
49 49 49 45 41 39 39 38 36 36 35 35 35 35 34 32 32 31 31 30 30 29 29 30 30 31 32 32 33 33 34 35 36 37 38 38 39 40 41 43 45 46 47 48
50 49 48 42 39 38 39 38 34 34 34 33 34 34 31 31 32 31 31 30 30 30 30 30 30 31 32 32 33 33 34 35 36 37 38 39 40 41 43 44 45 47 48 50
49 49 45 41 39 39 39 33 31 32 32 33 33 32 31 31 31 31 30 30 30 30 30 30 31 31 32 32 32 33 34 35 36 37 38 39 41 42 44 45 47 48 50 52
48 48 44 39 38 38 36 34 33 32 32 32 32 32 32 31 30 30 30 30 30 31 31 31 31 32 32 32 33 34 35 36 37 38 39 41 42 44 45 47 48 50 52 53
44 42 39 37 36 36 35 34 33 32 32 32 32 32 31 31 30 30 30 30 31 31 31 31 32 32 33 33 34 35 36 37 38 39 41 42 43 45 47 48 50 52 54 55
42 41 39 37 37 36 34 33 33 32 32 31 31 31 31 31 31 31 31 31 31 31 32 32 33 33 34 35 36 37 37 38 39 41 42 43 45 47 48 50 52 53 55 56
42 40 40 39 36 36 35 34 33 32 32 31 31 30 30 31 31 31 31 31 32 32 32 33 34 34 35 36 37 38 38 40 41 42 44 45 47 48 50 52 53 55 56 58
40 38 38 37 36 36 35 34 33 32 31 31 31 31 31 31 31 31 32 32 32 33 33 34 35 36 37 38 38 39 40 41 43 44 45 47 48 49 51 53 55 56 58 59
39 39 38 38 38 37 36 35 34 33 32 31 31 31 31 32 32 32 32 33 33 34 35 35 36 37 38 39 40 41 42 43 44 45 47 48 49 51 52 54 56 58 59 61
40 40 38 37 37 37 36 36 35 34 33 32 32 32 32 32 32 33 33 34 35 35 36 37 37 38 39 40 41 42 43 44 45 46 48 49 51 52 54 56 57 58 60 62
39 39 37 37 37 37 36 35 35 34 34 33 33 33 33 33 33 34 34 35 36 36 37 38 39 40 41 42 42 43 44 45 47 48 50 51 53 54 56 57 59 60 62 63
38 38 38 37 37 36 35 35 34 34 34 34 35 35 35 35 35 35 36 37 37 38 38 39 40 41 42 42 43 44 45 47 48 50 51 53 54 56 57 59 61 63 64 65
37 36 36 36 36 36 35 34 34 34 34 35 35 36 36 36 36 37 37 38 38 39 39 40 41 42 43 43 44 45 46 48 50 51 53 54 56 58 59 62 63 64 65 66
37 36 35 36 36 36 35 35 34 34 34 34 35 35 35 36 36 37 38 38 39 39 40 41 42 42 43 44 45 47 48 50 51 53 55 56 58 60 62 64 65 65 66 67
37 36 35 35 35 35 35 35 35 35 35 34 34 35 35 36 36 37 38 38 39 40 41 42 43 44 45 46 47 48 50 51 53 55 57 59 61 63 64 65 65 66 67 67
36 36 35 35 34 34 35 34 34 34 34 34 35 35 36 36 37 37 38 39 40 41 42 43 44 45 46 47 49 50 52 54 56 57 60 62 63 64 65 66 66 67 66 65
34 34 35 35 34 34 34 33 33 33 34 34 35 35 36 36 37 37 38 39 41 42 43 44 45 46 47 49 51 52 54 56 58 60 62 63 64 65 66 67 67 65 63 62
32 34 34 34 34 34 33 33 33 33 34 34 34 35 35 36 37 38 39 40 41 42 44 45 46 48 49 51 53 54 56 58 61 63 64 65 65 66 66 66 64 62 60 59
32 32 32 33 33 33 33 33 33 33 34 34 34 35 35 36 37 39 40 41 42 44 45 46 48 49 51 52 55 57 59 61 63 64 65 66 66 65 65 63 61 59 57 57
30 30 30 31 31 32 32 32 33 33 34 34 34 35 35 36 38 39 41 42 44 45 46 48 49 51 53 55 57 59 61 63 65 65 65 65 64 63 62 60 58 56 56 55
28 28 28 28 28 29 30 31 32 32 33 34 34 35 36 37 39 40 42 43 44 45 47 49 51 53 55 57 59 61 63 64 64 64 63 63 62 60 59 57 55 55 54 53
26 26 27 27 28 28 29 30 31 31 32 33 34 36 37 38 40 41 42 44 45 47 49 51 53 54 56 59 61 62 62 62 62 62 61 60 59 57 56 55 54 53 52 52
26 26 26 27 27 28 28 29 30 31 33 34 35 37 39 40 41 43 44 46 48 49 51 52 54 56 58 60 61 61 62 62 61 60 59 58 57 56 55 53 52 52 51 50
Wind_Direction
230 234 236 237 238 240 243 246 249 252 255 259 263 265 267 269 271 273 275 276 277 278 279 279 279 279 279 279 280 280 281 281 282 281 281 282 284 285 286 288 289 290 292 293
228 231 235 237 236 238 241 244 248 249 251 255 260 264 267 269 270 272 275 276 278 279 279 279 279 279 279 280 280 280 281 281 282 282 283 284 285 286 287 289 290 291 292 293
228 230 234 235 235 239 241 244 247 250 253 255 257 261 265 268 271 272 274 276 277 279 279 278 277 278 279 280 281 281 281 281 281 283 284 284 285 287 288 289 290 291 292 293
227 229 233 236 238 241 243 244 246 249 250 253 256 259 262 266 269 272 274 275 277 278 278 278 278 278 280 281 281 281 281 281 283 284 285 285 286 287 288 289 290 291 292 293
227 231 235 235 236 240 244 245 246 248 250 253 255 257 261 265 267 270 272 274 276 277 278 278 278 279 280 281 281 281 282 283 284 284 285 285 286 287 288 289 291 292 293 294
228 231 234 234 236 240 244 244 245 248 250 252 255 258 262 264 266 268 271 274 275 276 277 278 279 280 281 282 283 283 283 284 284 285 285 286 287 288 289 290 292 293 294 295
229 232 234 235 237 239 243 247 247 249 250 252 255 259 260 262 265 268 271 273 274 276 277 278 279 280 281 282 283 284 284 285 285 286 287 287 288 289 290 292 293 294 295 296
230 231 234 236 238 242 247 249 249 250 250 252 255 257 259 262 265 268 270 272 274 275 277 278 280 281 282 282 283 284 285 285 286 287 287 288 290 291 292 293 294 295 296 297
232 235 237 238 241 243 246 248 249 250 250 252 254 257 259 261 265 268 271 273 274 275 277 279 280 281 282 283 284 285 286 287 288 288 289 290 292 293 294 295 296 296 297 298
231 232 235 239 241 242 245 247 248 249 250 252 254 256 259 262 265 268 271 273 274 276 277 279 280 282 283 284 286 287 287 288 289 290 291 292 293 294 295 296 297 298 299 300
232 232 235 237 239 241 244 246 247 248 250 252 254 256 260 264 266 268 270 273 274 276 277 278 280 281 283 285 286 287 288 289 290 292 293 294 295 296 297 298 299 300 300 301
232 233 235 236 237 240 243 245 247 247 250 253 255 258 261 264 267 268 270 273 274 276 278 279 280 282 284 286 287 288 289 291 292 293 294 295 296 297 299 300 301 301 302 302
230 232 234 234 237 240 242 244 247 249 251 255 257 260 263 265 267 269 271 273 274 276 278 279 281 283 285 286 288 289 290 291 293 294 295 296 297 299 300 301 302 303 303 303
229 231 232 234 236 240 242 244 248 250 253 256 259 261 264 266 267 269 271 273 274 276 278 280 281 284 286 287 288 290 291 292 294 295 296 298 299 300 301 302 303 304 304 304
230 232 233 235 237 240 242 245 248 251 254 257 260 262 264 266 268 269 271 274 276 277 279 281 283 285 286 288 289 290 292 293 295 296 298 299 300 301 302 303 304 304 304 304
231 232 233 234 237 240 242 245 248 251 255 258 260 262 265 266 268 271 273 275 277 279 281 282 284 285 287 288 290 291 293 295 296 298 299 300 302 303 303 304 305 305 305 305
231 232 233 235 238 240 243 247 250 253 255 258 261 263 265 267 269 271 273 276 278 280 282 283 285 286 287 289 290 292 294 296 298 299 300 301 302 303 304 305 306 306 306 306
233 234 236 237 239 242 245 248 250 253 257 260 262 264 266 268 270 272 275 277 279 281 283 285 286 287 289 290 292 294 296 298 299 300 301 302 304 304 305 306 307 307 307 308
235 236 238 240 241 243 246 249 252 255 258 261 263 265 266 268 271 274 276 278 280 282 284 286 287 289 290 292 294 295 297 299 300 301 302 304 305 306 307 307 307 308 308 308
234 237 239 241 242 244 246 250 253 256 259 261 263 266 268 270 272 275 276 279 281 283 285 286 288 290 291 293 295 297 299 300 301 302 304 305 306 307 307 308 308 308 309 309
235 237 239 240 241 243 246 250 253 256 259 261 264 266 269 272 274 277 279 281 283 284 286 288 290 291 293 295 297 298 300 301 302 303 304 305 306 307 308 308 308 308 308 309
235 236 237 239 241 244 247 251 254 257 260 263 265 268 271 274 276 278 280 282 284 286 288 290 291 293 295 297 298 299 301 302 303 304 305 306 307 307 308 309 309 308 308 309
234 235 237 239 242 246 248 252 255 258 262 264 267 270 273 275 278 279 281 283 285 288 290 291 293 295 297 298 300 301 302 303 304 305 306 307 307 308 309 309 308 308 308 308
232 234 237 239 242 245 249 252 255 258 262 265 268 271 274 276 279 281 283 286 288 289 291 293 295 297 298 300 301 302 303 304 305 306 306 307 307 308 309 309 308 308 308 308
231 234 237 240 243 246 249 252 255 259 262 266 269 272 275 277 280 283 285 287 289 291 293 295 297 298 300 301 302 303 304 305 306 306 307 307 308 308 309 308 308 308 308 308
232 234 238 242 246 249 252 254 257 259 262 266 269 273 276 279 282 285 286 288 291 292 294 296 298 299 301 302 303 304 305 306 306 307 307 308 308 308 308 308 308 308 308 308
234 236 240 243 247 250 254 256 259 262 265 268 272 276 279 282 284 286 288 290 292 294 296 297 299 301 302 303 305 306 306 307 307 307 308 308 309 309 308 308 308 308 308 308
Height
5635 5641 5646 5651 5657 5661 5664 5670 5675 5681 5684 5687 5687 5689 5691 5693 5693 5695 5696 5696 5696 5696 5696 5696 5695 5695 5694 5694 5693 5692 5691 5690 5689 5688 5686 5685 5683 5682 5680 5677 5675 5672 5669 5666
5624 5631 5636 5639 5646 5651 5657 5662 5667 5671 5675 5680 5680 5681 5682 5684 5685 5687 5687 5688 5688 5688 5688 5687 5687 5686 5686 5685 5684 5683 5682 5681 5680 5679 5677 5676 5674 5672 5670 5667 5665 5662 5659 5655
5616 5622 5624 5628 5638 5644 5649 5654 5659 5662 5669 5671 5672 5673 5674 5676 5677 5678 5679 5679 5679 5680 5679 5679 5678 5678 5677 5676 5676 5674 5673 5672 5671 5669 5668 5666 5664 5662 5660 5657 5654 5651 5648 5644
5606 5612 5613 5626 5633 5637 5641 5646 5651 5655 5659 5661 5663 5665 5666 5668 5669 5670 5670 5671 5671 5671 5670 5670 5669 5669 5668 5667 5666 5665 5664 5663 5662 5660 5658 5656 5654 5652 5649 5646 5643 5640 5636 5633
5596 5600 5607 5617 5625 5630 5633 5638 5643 5647 5650 5652 5654 5655 5658 5660 5661 5662 5662 5662 5662 5662 5662 5661 5661 5660 5659 5658 5657 5656 5655 5654 5652 5650 5648 5646 5644 5641 5639 5636 5632 5629 5625 5621
5587 5592 5599 5612 5619 5622 5625 5628 5636 5638 5641 5643 5645 5647 5651 5652 5652 5653 5653 5654 5654 5654 5653 5653 5652 5651 5650 5650 5648 5647 5646 5644 5642 5640 5638 5636 5633 5631 5628 5624 5621 5617 5613 5608
5579 5584 5593 5604 5609 5612 5617 5625 5628 5630 5632 5634 5636 5640 5642 5642 5643 5644 5645 5645 5645 5645 5645 5644 5643 5642 5641 5640 5639 5638 5636 5634 5632 5630 5628 5625 5623 5620 5616 5613 5609 5605 5601 5596
5571 5578 5589 5597 5601 5605 5611 5615 5618 5621 5623 5626 5628 5630 5632 5633 5635 5636 5636 5636 5636 5636 5636 5635 5634 5633 5632 5631 5630 5628 5626 5624 5622 5620 5617 5615 5612 5608 5605 5601 5597 5592 5587 5582
5568 5577 5585 5589 5594 5597 5601 5605 5609 5612 5615 5618 5620 5621 5623 5625 5626 5627 5627 5627 5627 5627 5627 5626 5625 5624 5623 5622 5620 5618 5616 5614 5612 5609 5606 5603 5600 5596 5592 5588 5584 5579 5574 5568
5560 5568 5575 5581 5585 5589 5593 5596 5600 5603 5606 5609 5611 5613 5615 5616 5617 5618 5618 5618 5618 5618 5617 5617 5616 5615 5614 5612 5610 5608 5606 5604 5601 5598 5595 5592 5588 5584 5580 5575 5570 5565 5559 5553
5551 5560 5566 5572 5577 5581 5584 5588 5592 5595 5598 5600 5602 5604 5606 5607 5608 5609 5609 5609 5609 5609 5608 5607 5606 5605 5604 5602 5600 5598 5595 5593 5590 5587 5583 5580 5576 5571 5567 5562 5556 5550 5544 5538
5546 5554 5559 5564 5568 5572 5576 5580 5583 5587 5589 5592 5594 5596 5597 5598 5599 5599 5600 5600 5599 5599 5598 5597 5596 5595 5593 5591 5589 5587 5584 5581 5578 5575 5571 5567 5563 5559 5553 5548 5542 5535 5528 5522
5538 5543 5549 5554 5558 5563 5568 5572 5575 5578 5581 5583 5585 5587 5588 5589 5590 5590 5590 5590 5590 5589 5588 5587 5586 5585 5583 5581 5578 5576 5573 5570 5566 5563 5559 5555 5550 5545 5540 5535 5527 5520 5513 5505
5529 5534 5539 5545 5550 5555 5559 5563 5566 5569 5572 5574 5576 5578 5579 5580 5580 5580 5580 5580 5579 5579 5578 5577 5576 5574 5572 5570 5567 5564 5561 5557 5554 5550 5546 5541 5536 5531 5526 5520 5514 5506 5498 5489
5521 5527 5532 5537 5542 5546 5550 5554 5557 5560 5563 5565 5567 5568 5569 5570 5570 5571 5570 5570 5569 5568 5567 5566 5565 5563 5560 5558 5555 5552 5548 5545 5541 5537 5532 5527 5522 5516 5510 5504 5497 5491 5483 5474
5513 5518 5523 5529 5534 5538 5542 5546 5549 5551 5554 5556 5557 5559 5560 5560 5560 5560 5560 5560 5559 5558 5557 5555 5553 5551 5548 5546 5543 5539 5536 5532 5528 5523 5518 5513 5507 5501 5495 5488 5481 5473 5466 5457
5506 5511 5516 5521 5525 5530 5533 5537 5540 5542 5544 5546 5547 5548 5549 5550 5550 5550 5549 5549 5548 5547 5545 5544 5541 5539 5536 5533 5530 5527 5523 5518 5514 5509 5504 5498 5492 5485 5479 5472 5464 5456 5448 5439
5498 5503 5508 5513 5517 5521 5524 5527 5530 5533 5535 5536 5537 5538 5539 5540 5540 5539 5539 5538 5537 5536 5534 5532 5529 5527 5524 5521 5517 5513 5509 5505 5500 5494 5489 5483 5476 5469 5462 5455 5446 5438 5430 5421
5490 5495 5500 5504 5508 5511 5515 5518 5521 5523 5525 5526 5528 5528 5529 5529 5529 5529 5528 5527 5526 5524 5522 5520 5517 5514 5511 5508 5504 5500 5495 5490 5485 5479 5473 5467 5460 5453 5445 5437 5429 5421 5412 5404
5482 5486 5491 5495 5499 5503 5506 5509 5511 5513 5515 5516 5517 5518 5518 5518 5518 5518 5517 5516 5514 5512 5510 5508 5505 5502 5498 5494 5490 5486 5481 5475 5470 5464 5457 5451 5443 5436 5428 5419 5411 5403 5394 5386
5474 5478 5482 5486 5490 5494 5497 5499 5501 5503 5505 5506 5507 5508 5508 5508 5507 5507 5505 5504 5502 5500 5498 5495 5492 5489 5485 5481 5476 5471 5466 5460 5454 5448 5441 5434 5426 5418 5410 5402 5393 5385 5376 5368
5465 5469 5474 5478 5481 5485 5487 5490 5492 5494 5495 5496 5497 5497 5497 5497 5496 5496 5494 5493 5491 5488 5485 5482 5479 5475 5471 5467 5461 5456 5450 5444 5438 5431 5424 5416 5409 5401 5393 5384 5376 5368 5360 5352
5458 5462 5466 5469 5473 5475 5478 5480 5482 5484 5485 5486 5487 5487 5487 5486 5485 5484 5483 5481 5478 5476 5473 5469 5465 5461 5457 5452 5447 5441 5435 5428 5421 5414 5406 5398 5390 5382 5375 5367 5359 5351 5344 5337
5451 5454 5458 5461 5464 5466 5469 5471 5473 5474 5475 5476 5476 5476 5476 5475 5474 5473 5471 5469 5466 5463 5460 5456 5452 5447 5442 5437 5431 5425 5418 5411 5404 5396 5388 5380 5373 5365 5357 5349 5342 5335 5328 5321
5443 5447 5450 5453 5455 5458 5460 5461 5463 5464 5465 5466 5466 5466 5465 5464 5463 5461 5459 5456 5453 5450 5446 5442 5437 5432 5427 5421 5415 5408 5401 5393 5386 5378 5371 5363 5355 5348 5340 5333 5326 5320 5313 5306
5437 5440 5443 5445 5447 5449 5451 5452 5454 5455 5455 5456 5455 5455 5454 5453 5451 5449 5446 5444 5440 5437 5433 5428 5423 5417 5411 5405 5398 5391 5384 5376 5368 5361 5353 5346 5339 5331 5325 5318 5311 5304 5298 5292
5430 5433 5435 5437 5439 5441 5443 5444 5445 5445 5445 5445 5445 5444 5442 5441 5439 5437 5434 5431 5427 5423 5418 5413 5408 5402 5396 5389 5381 5374 5367 5359 5352 5344 5337 5330 5323 5316 5310 5303 5297 5290 5284 5278